TimeCDT,TemperatureF,Dew PointF,Humidity,Sea Level PressureIn,VisibilityMPH,Wind Direction,Wind SpeedMPH,Gust SpeedMPH,PrecipitationIn,Events,Conditions,WindDirDegrees,DateUTC
12:53 AM,72.0,69.1,91,29.97,10.0,Calm,Calm,-,N/A,,Clear,0,2013-07-04 05:53:00
1:53 AM,70.0,68.0,93,29.96,8.0,Calm,Calm,-,N/A,,Clear,0,2013-07-04 06:53:00
2:53 AM,70.0,68.0,93,29.95,9.0,Calm,Calm,-,N/A,,Clear,0,2013-07-04 07:53:00
3:53 AM,70.0,68.0,93,29.96,8.0,Calm,Calm,-,N/A,,Clear,0,2013-07-04 08:53:00
4:53 AM,70.0,68.0,93,29.96,8.0,North,3.5,-,0.01,,Clear,360,2013-07-04 09:53:00
5:53 AM,70.0,68.0,93,29.97,8.0,NNW,3.5,-,N/A,,Clear,340,2013-07-04 10:53:00
6:53 AM,70.0,68.0,93,29.97,7.0,North,3.5,-,N/A,,Partly Cloudy,360,2013-07-04 11:53:00
7:02 AM,69.8,68.0,94,29.98,6.0,NNE,4.6,-,N/A,,Mostly Cloudy,20,2013-07-04 12:02:00
7:12 AM,69.8,68.0,94,29.98,1.8,North,5.8,-,N/A,,Mostly Cloudy,360,2013-07-04 12:12:00
7:31 AM,69.8,69.8,100,29.98,0.8,North,4.6,-,N/A,,Overcast,10,2013-07-04 12:31:00
7:38 AM,69.8,69.8,100,29.98,1.0,North,4.6,-,N/A,,Overcast,10,2013-07-04 12:38:00
7:53 AM,71.1,69.1,93,29.97,1.2,North,4.6,-,N/A,,Overcast,10,2013-07-04 12:53:00
8:05 AM,71.6,69.8,94,29.99,2.5,NNE,3.5,-,N/A,,Overcast,20,2013-07-04 13:05:00
8:12 AM,71.6,69.8,94,29.99,3.0,North,4.6,-,N/A,,Overcast,10,2013-07-04 13:12:00
8:53 AM,72.0,69.1,91,29.99,7.0,North,6.9,-,N/A,,Overcast,10,2013-07-04 13:53:00
9:26 AM,73.4,69.8,88,30.00,8.0,NE,5.8,-,N/A,,Overcast,40,2013-07-04 14:26:00
9:53 AM,75.9,70.0,82,29.99,10.0,NNE,5.8,-,N/A,,Mostly Cloudy,30,2013-07-04 14:53:00
10:37 AM,77.0,69.8,78,30.01,10.0,Variable,4.6,-,N/A,,Overcast,0,2013-07-04 15:37:00
10:53 AM,78.1,69.1,74,30.00,10.0,Calm,Calm,-,N/A,,Overcast,0,2013-07-04 15:53:00
11:28 AM,80.6,69.8,70,30.01,10.0,NNE,6.9,-,N/A,,Scattered Clouds,20,2013-07-04 16:28:00
11:53 AM,81.0,69.1,67,29.99,10.0,NNE,6.9,-,N/A,,Scattered Clouds,20,2013-07-04 16:53:00
12:30 PM,82.4,69.8,66,30.02,10.0,NE,6.9,-,N/A,,Mostly Cloudy,40,2013-07-04 17:30:00
12:40 PM,82.4,68.0,62,30.01,10.0,ENE,9.2,-,N/A,,Scattered Clouds,60,2013-07-04 17:40:00
12:53 PM,82.9,69.1,63,29.99,10.0,ENE,10.4,-,N/A,,Scattered Clouds,60,2013-07-04 17:53:00
1:53 PM,84.9,68.0,57,29.96,10.0,Variable,4.6,-,N/A,,Scattered Clouds,0,2013-07-04 18:53:00
2:53 PM,86.0,66.9,53,29.94,10.0,North,5.8,-,N/A,,Partly Cloudy,10,2013-07-04 19:53:00
3:53 PM,88.0,66.9,49,29.93,10.0,North,8.1,-,N/A,,Partly Cloudy,360,2013-07-04 20:53:00
4:53 PM,87.1,66.9,51,29.92,10.0,Calm,Calm,-,N/A,,Partly Cloudy,0,2013-07-04 21:53:00
5:53 PM,87.1,66.0,49,29.92,10.0,Variable,3.5,-,N/A,,Clear,0,2013-07-04 22:53:00
6:53 PM,84.0,68.0,58,29.93,10.0,NW,4.6,-,N/A,,Clear,320,2013-07-04 23:53:00
7:53 PM,82.9,70.0,65,29.94,10.0,Calm,Calm,-,N/A,,Mostly Cloudy,0,2013-07-05 00:53:00
8:53 PM,78.1,71.1,79,29.95,10.0,Calm,Calm,-,N/A,,Clear,0,2013-07-05 01:53:00
9:53 PM,75.0,70.0,84,29.97,9.0,Calm,Calm,-,N/A,,Clear,0,2013-07-05 02:53:00
10:53 PM,73.9,70.0,87,29.97,9.0,Calm,Calm,-,N/A,,Clear,0,2013-07-05 03:53:00
11:53 PM,75.9,69.1,79,29.98,10.0,Calm,Calm,-,N/A,,Mostly Cloudy,0,2013-07-05 04:53:00